Theta_e
296 298 298 295 296 299 299 299 296 306 308 310 314 316 318 320 320 319 320 320 318 319 321 322 323 327 331 334 335 339 339 339 339 340 342 338 340 342 345 349 350 351 350 350
295 298 299 295 297 302 306 306 308 309 309 315 318 318 317 318 319 319 320 321 322 321 321 321 322 324 327 329 330 332 334 335 338 337 337 338 339 340 341 341 347 350 351 349
290 296 294 289 294 295 302 308 311 305 312 317 315 317 317 317 316 314 314 314 315 317 319 322 323 324 324 327 328 328 328 330 332 332 332 332 333 334 335 336 339 340 345 348
289 293 284 292 298 302 309 311 313 313 315 316 315 317 315 315 312 312 312 312 311 312 313 314 316 322 324 325 325 326 327 329 331 332 331 331 331 331 331 334 336 338 339 341
286 286 294 298 298 296 300 305 315 313 314 314 311 310 309 312 311 308 307 308 310 311 310 311 313 316 317 316 316 316 317 320 324 326 326 330 329 330 331 331 332 333 337 338
286 284 285 296 302 303 307 300 315 316 311 309 309 301 304 310 309 308 308 309 309 310 310 310 310 314 313 312 312 312 313 316 317 319 320 322 323 325 329 330 332 334 334 336
287 286 291 299 302 305 291 294 310 310 309 308 305 306 306 308 307 308 308 309 310 310 308 307 309 310 308 308 308 311 313 314 315 314 316 317 318 320 323 322 322 325 330 334
287 284 283 304 303 298 300 302 310 309 307 306 308 307 306 306 305 306 306 308 308 306 305 306 306 307 304 304 307 308 309 309 310 313 314 316 314 315 315 315 317 319 326 329
293 292 300 302 302 304 304 304 304 306 308 308 307 305 305 304 304 304 304 304 305 304 303 304 305 305 302 302 305 304 304 304 306 307 308 310 310 311 313 314 314 314 313 315
295 299 300 302 303 305 305 303 304 307 306 307 303 304 302 302 302 302 303 303 303 302 301 301 302 302 302 303 303 302 301 301 303 303 303 304 308 309 309 308 308 308 308 309
293 298 301 304 302 303 303 304 303 304 305 304 304 302 302 301 300 301 301 301 301 301 300 300 300 300 301 301 302 301 300 300 300 300 300 302 305 305 307 307 303 304 305 305
289 297 297 300 302 304 302 302 302 303 302 304 304 302 302 301 301 301 301 300 300 300 300 299 299 300 300 301 300 298 298 299 299 298 299 300 300 302 304 303 302 300 298 300
297 301 301 302 304 303 302 302 304 302 302 302 303 303 302 300 299 303 300 300 299 299 299 299 299 299 299 300 299 299 297 298 297 297 297 297 298 298 298 302 302 300 299 299
303 302 299 301 299 303 303 304 306 303 303 303 302 303 303 300 301 300 299 300 300 299 298 298 298 298 299 300 299 296 295 300 295 295 295 296 296 297 298 298 298 300 301 300
302 302 300 302 303 304 306 304 302 301 301 301 302 302 303 300 299 300 300 300 301 299 299 298 297 297 299 299 296 295 294 294 295 294 294 297 295 296 297 297 297 298 299 299
300 300 301 301 303 303 304 303 301 301 301 301 302 301 303 303 301 301 301 300 299 297 297 297 297 299 298 297 295 295 294 300 297 292 292 292 293 293 293 293 293 294 295 296
296 294 296 296 300 303 304 304 304 304 305 304 303 302 302 302 301 300 301 301 300 299 298 297 297 299 298 297 296 294 292 292 296 291 290 290 290 290 291 291 291 291 292 294
300 300 300 300 300 303 303 305 306 305 305 306 304 305 305 303 301 300 301 299 298 298 298 299 299 299 298 297 295 293 291 291 290 289 289 290 289 289 289 290 290 290 290 292
303 302 303 303 302 303 301 301 303 305 306 306 306 305 305 306 304 303 300 299 299 298 299 300 307 304 297 298 296 292 291 291 290 289 289 291 288 288 289 291 290 290 290 290
304 305 305 305 305 303 301 302 303 302 302 302 301 301 301 303 304 303 302 300 301 302 301 301 304 298 297 299 304 291 291 291 290 289 289 289 288 287 288 290 290 290 289 289
304 305 304 305 305 305 305 304 306 304 305 302 301 301 301 301 304 306 302 302 303 304 302 307 303 298 298 299 300 291 291 290 290 289 289 288 288 287 287 290 289 288 288 289
303 306 306 306 305 305 305 305 307 307 302 302 302 303 301 300 302 303 305 302 305 307 305 305 304 303 299 306 294 292 291 291 290 290 289 288 287 286 286 287 288 288 287 288
305 304 302 302 300 301 302 304 303 306 303 303 301 300 300 302 301 303 302 305 305 306 305 304 305 307 308 302 295 293 292 292 291 291 290 289 288 286 286 286 288 288 288 288
300 301 301 302 301 299 297 296 299 301 301 301 301 300 298 298 299 304 307 307 307 306 305 304 306 308 308 298 295 293 293 293 294 293 291 292 288 286 286 285 288 288 289 288
299 298 298 298 296 294 295 295 295 295 296 299 300 300 301 301 301 302 306 306 306 306 306 307 307 307 305 297 295 294 294 294 295 294 292 291 288 286 286 286 287 289 289 289
298 297 296 296 295 295 296 296 295 297 297 297 297 298 300 299 301 301 302 305 305 305 303 302 302 301 297 296 295 296 296 296 295 295 294 292 289 287 287 286 286 289 290 291
300 298 297 296 296 297 297 296 296 296 297 296 296 298 301 300 304 304 304 304 303 304 303 302 300 301 298 298 297 297 297 297 296 296 295 293 291 290 288 288 287 288 289 291
Wind_Speed
4 6 5 3 8 4 3 6 7 17 17 18 14 13 12 11 11 9 10 11 9 9 8 9 6 5 5 3 2 3 5 3 5 3 5 5 8 8 5 4 6 7 7 7
6 12 11 6 14 9 8 8 15 16 15 16 16 16 13 13 12 11 10 10 9 9 9 9 8 7 6 6 5 5 5 5 5 5 8 7 9 9 8 6 6 5 7 6
2 10 8 8 8 7 4 6 23 17 15 21 19 17 16 15 13 14 12 12 11 8 7 7 8 6 8 7 7 8 8 9 9 8 6 7 8 7 7 6 4 5 5 1
1 7 4 7 8 7 10 5 14 22 23 21 20 17 18 14 16 13 11 9 8 7 8 8 6 6 7 8 9 9 9 9 6 5 6 6 3 2 5 4 6 6 7 5
4 3 4 8 8 6 2 6 18 24 18 16 18 19 12 14 14 11 8 6 6 7 7 9 10 8 9 10 9 10 10 9 7 6 5 2 4 5 4 6 5 6 6 7
2 3 5 7 4 7 5 5 5 21 21 27 21 13 8 14 13 11 10 8 8 8 10 11 8 10 11 9 10 9 7 7 7 7 7 6 6 6 4 3 4 4 6 5
1 1 3 4 8 5 6 6 3 14 21 20 12 7 12 15 10 11 11 12 12 12 10 7 7 10 11 9 10 6 8 7 7 6 6 5 5 3 4 5 6 6 6 5
2 1 3 7 4 7 5 2 8 5 5 11 15 17 15 13 9 11 13 13 12 12 9 6 7 10 8 9 6 6 7 8 9 9 8 8 7 6 7 6 5 6 6 5
5 5 5 6 8 6 4 12 6 9 8 17 18 16 15 14 13 11 11 9 7 10 8 6 7 7 8 3 5 6 7 7 7 7 8 8 7 9 8 9 7 6 5 5
5 7 3 6 5 6 8 11 8 7 8 11 15 15 15 13 12 11 9 9 7 8 8 6 6 7 5 5 5 6 5 5 5 5 7 6 5 5 5 6 8 8 8 9
2 3 3 4 7 7 8 9 10 7 8 11 16 12 14 12 11 9 7 6 7 7 6 6 5 5 4 4 6 6 6 5 5 4 5 5 5 4 5 5 2 5 4 4
5 3 4 6 5 8 10 8 8 11 7 6 14 13 13 10 8 9 9 7 7 7 7 4 4 5 4 4 4 4 4 4 4 4 5 4 4 6 3 6 11 6 4 3
2 3 3 5 6 3 9 9 8 10 10 10 8 12 11 11 7 10 8 8 8 8 7 6 5 4 2 3 4 6 5 5 3 4 3 4 4 4 8 7 6 10 12 13
3 4 3 6 3 8 7 9 12 9 9 10 8 10 12 8 7 10 9 8 8 8 7 6 4 2 2 1 4 5 5 8 4 4 4 4 4 5 5 7 10 9 7 10
4 3 1 4 5 8 3 8 8 9 8 8 8 10 11 11 10 10 9 8 10 9 8 7 6 5 4 3 4 4 4 3 4 5 5 6 5 7 7 8 8 9 9 8
4 4 2 3 4 9 11 5 7 7 8 7 8 9 12 13 12 10 11 10 12 9 8 8 7 6 6 7 5 3 3 8 7 4 4 4 4 5 6 7 8 8 8 9
4 2 3 2 3 6 9 3 6 7 4 4 3 6 10 12 10 9 12 11 11 11 11 9 8 7 6 7 6 4 3 3 6 3 3 3 4 4 5 6 7 8 9 10
4 3 1 6 5 6 7 7 4 4 4 4 3 4 7 11 14 12 11 8 7 7 8 9 8 7 6 8 7 5 5 4 3 2 1 2 3 3 4 6 7 9 9 10
6 6 4 2 4 3 2 2 3 6 8 6 4 3 3 6 7 9 8 10 10 10 10 8 15 12 8 10 8 5 5 5 4 3 2 2 1 3 3 5 7 10 11 11
6 6 6 5 5 5 6 6 6 7 7 5 4 5 6 7 8 10 11 14 15 12 10 10 10 8 8 9 11 5 5 5 4 3 2 2 3 4 4 6 8 8 9 9
8 6 3 2 1 1 8 7 3 6 6 3 7 8 8 6 4 5 7 9 12 10 10 15 9 7 7 9 9 6 6 5 5 4 4 4 4 4 4 6 7 8 9 8
6 6 6 5 5 5 3 6 5 1 4 6 5 4 6 7 7 6 8 8 6 17 9 8 9 13 10 19 5 6 6 6 5 5 5 5 5 4 5 4 6 7 9 9
5 5 6 6 5 5 5 5 5 7 8 7 7 8 8 8 5 7 8 7 5 10 7 8 13 16 19 10 7 6 6 6 7 6 6 5 5 4 4 4 5 6 8 9
4 4 5 5 4 3 2 2 3 3 5 7 8 7 6 5 5 6 5 8 10 10 8 9 13 18 18 6 7 6 5 6 7 7 6 8 5 5 4 4 6 6 7 9
6 5 4 5 4 3 4 1 1 2 4 4 6 6 5 4 5 4 6 6 15 15 8 12 16 14 8 6 7 6 6 5 7 7 7 6 6 5 4 5 6 7 7 8
6 4 3 5 6 5 3 2 1 3 3 4 1 0 3 4 4 3 3 5 6 6 4 4 4 5 6 6 6 7 7 7 7 7 8 8 7 6 5 5 5 6 6 8
4 5 5 4 2 4 4 3 1 1 1 2 1 1 2 2 2 1 3 2 3 5 2 2 4 6 6 7 6 7 7 6 7 7 7 6 6 7 6 6 6 5 6 7
Wind_Direction
319 326 277 266 325 216 145 171 129 160 148 159 138 132 129 124 118 109 105 96 87 92 87 86 76 73 69 68 70 114 122 115 81 66 59 26 14 351 335 256 222 215 202 205
342 348 354 20 2 131 141 90 90 130 113 138 138 129 131 126 126 120 114 103 97 87 86 88 98 94 94 79 60 83 96 88 111 90 51 53 24 344 338 6 346 249 230 219
230 327 345 31 337 356 60 120 137 146 149 143 143 141 142 132 119 104 100 99 94 82 82 77 75 84 85 85 85 80 76 58 44 58 53 48 38 337 332 351 343 341 323 289
204 28 29 238 328 11 81 92 111 119 143 144 141 137 129 126 118 113 110 99 87 78 65 49 61 61 45 44 51 50 54 57 42 45 57 50 48 312 341 354 351 347 318 328
112 164 279 2 355 348 29 19 140 131 137 131 118 111 107 116 112 117 112 109 100 86 82 60 54 65 60 42 41 42 39 39 30 27 13 22 22 357 352 349 359 336 321 323
76 102 174 193 266 328 95 103 186 141 142 140 136 128 153 131 122 109 99 97 90 71 64 61 40 64 64 46 37 21 15 23 14 14 21 21 360 338 302 320 297 305 300 287
93 187 307 307 314 46 5 224 193 148 145 146 143 127 130 121 117 115 110 105 88 76 72 58 51 67 56 45 31 353 15 15 5 358 351 352 332 329 320 319 320 315 301 317
53 105 277 321 350 117 206 131 131 123 122 116 121 123 126 118 115 106 104 98 98 91 80 65 66 75 62 46 354 9 14 16 6 2 359 354 348 337 333 337 338 336 354 359
146 209 248 335 86 34 78 103 84 116 127 128 127 125 117 116 109 107 104 99 98 100 90 65 68 77 76 34 37 26 28 15 6 5 7 4 5 3 5 7 8 352 359 345
63 330 27 86 62 72 74 86 103 112 115 118 118 115 117 115 113 106 100 100 100 93 91 77 75 74 80 45 39 43 43 29 10 18 357 353 359 4 8 11 10 10 8 360
32 287 38 60 101 114 96 100 94 84 118 128 118 122 124 121 118 119 114 106 100 104 97 100 92 89 84 71 54 30 20 11 11 10 3 355 4 356 1 14 46 349 349 330
210 253 205 241 177 138 122 127 124 117 96 107 128 133 131 130 131 126 124 119 106 111 113 117 90 82 52 54 70 57 18 353 347 354 351 356 346 336 1 336 336 338 308 233
187 293 271 295 197 174 141 142 132 128 129 128 133 135 137 141 144 140 130 130 134 139 134 121 95 97 41 19 23 11 2 355 12 12 358 355 351 342 335 338 341 337 339 340
281 0 310 33 316 306 163 161 140 143 139 141 142 143 149 150 137 144 150 153 142 140 139 140 137 166 228 41 50 37 19 11 7 349 348 346 344 341 338 339 334 335 341 331
196 132 192 281 13 23 233 137 141 156 158 147 158 156 161 154 156 163 163 153 149 147 154 160 171 213 216 134 91 58 32 0 11 4 358 358 351 344 340 339 335 328 329 328
147 151 82 90 80 57 42 4 139 165 167 168 168 159 172 166 166 163 164 150 148 172 177 169 176 196 171 145 132 84 31 40 46 27 9 0 351 348 344 334 325 320 322 322
159 230 222 229 133 129 100 282 74 46 61 89 217 183 161 167 166 163 175 176 169 171 175 166 188 185 166 159 151 147 128 91 74 62 23 355 345 335 321 321 322 319 314 312
200 232 276 184 178 180 167 133 79 57 344 6 360 82 140 176 181 182 185 173 149 165 181 187 182 180 162 162 162 158 150 147 140 109 44 353 333 318 311 318 317 316 312 311
210 226 249 220 176 229 260 253 217 197 219 223 263 320 277 174 209 202 172 167 169 176 211 192 198 181 172 181 169 164 157 155 156 156 177 266 266 253 301 318 315 315 314 315
231 223 224 224 212 198 206 212 212 217 211 212 231 244 244 232 216 200 178 187 189 195 179 189 197 168 184 197 187 172 171 173 183 207 236 261 288 293 294 309 312 311 310 305
230 229 292 359 283 218 215 207 206 267 283 180 191 216 225 244 222 220 199 194 206 193 176 188 190 174 179 183 188 180 184 189 195 216 236 249 274 286 285 302 315 315 309 303
205 159 162 162 141 155 144 122 150 144 220 203 212 189 193 206 192 196 199 207 218 192 180 183 192 183 184 196 180 188 192 195 202 209 225 229 231 247 252 268 298 302 310 305
163 170 189 175 176 201 202 217 223 194 202 213 214 219 223 229 209 208 222 198 196 198 179 186 194 191 197 187 186 193 197 202 213 217 221 219 227 228 245 257 276 296 300 304
153 174 186 167 143 144 110 324 2 260 255 254 230 217 198 222 245 224 218 170 176 221 196 183 195 197 199 182 190 194 200 208 221 225 224 217 217 225 241 256 271 285 285 292
168 176 168 174 139 103 134 279 41 334 307 276 267 253 225 228 215 259 200 191 188 208 204 202 194 202 196 187 191 195 213 221 226 215 214 220 207 213 225 242 251 265 277 283
188 193 180 141 142 146 123 73 16 304 326 301 328 200 240 222 234 198 173 162 154 151 156 197 154 162 177 186 197 210 223 228 221 217 218 223 202 203 214 232 243 250 268 278
193 110 125 110 118 136 142 150 142 339 77 97 150 174 127 54 134 169 244 256 154 113 167 243 161 178 186 202 206 221 229 226 220 218 220 217 200 206 216 227 230 240 256 273